Regional Weather Roundup
Issued by NWS

Home | Current Version | Previous Version | Graphics & Text | Print | Product List | Glossary Off
Versions: 1 2 3 4 5 6 7 8 9 10 11 12 13 14 15 16 17 18 19 20 21 22 23 24 25 26 27 28 29 30 31 32 33 34 35 36 37 38 39 40 41 42 43 44 45 46 47 48 49 50

000
ASUS43 KLOT 271310
RWRIL

ILLINOIS REGIONAL WEATHER ROUNDUP
NATIONAL WEATHER SERVICE CHICAGO/ROMEOVILLE IL
700 AM CST THU NOV 27 2014

NOTE: "FAIR" INDICATES FEW OR NO CLOUDS BELOW 12,000 FEET WITH NO
SIGNIFICANT WEATHER AND/OR OBSTRUCTIONS TO VISIBILITY.

* THESE STATIONS ARE NOT UNDER NWS QUALITY CONTROL. THEY ALSO MAY NOT
  REPORT WEATHER SUCH AS PRECIPITATION OR FOG.

ILZ001-002-007-009-015-016-024-271400-
NORTHWEST ILLINOIS

CITY           SKY/WX    TMP DP  RH WIND       PRES   REMARKS
MOLINE         CLOUDY    25  19  78 NW17G23   30.38R WCI  12
STERLING*      MOCLDY    25  18  74 NW8       30.34R WCI  16
SAVANNA*       CLOUDY    26  20  77 NW7       30.36R WCI  19
$$

ILZ003-004-008-010-011-017-018-271400-
NORTH CENTRAL ILLINOIS

CITY           SKY/WX    TMP DP  RH WIND       PRES   REMARKS
ROCKFORD       FLURRIES  23  18  81 NW9       30.33R WCI  13
FREEPORT*      LGT SNOW  23  19  86 NW10      30.34R WCI  12
ROCHELLE*      CLOUDY    22  19  89 W7        30.32R WCI  14
DE KALB*       CLOUDY    20  18  90 NW13      30.29R FOG     WCI   7
PERU*          CLOUDY    25  22  88 W9        30.34R WCI  15
$$

ILZ005-006-012>014-019>023-271400-
NORTHEAST ILLINOIS

CITY           SKY/WX    TMP DP  RH WIND       PRES   REMARKS
CHICAGO-OHARE  CLOUDY    24  19  81 NW10      30.27R WCI  14
CHICAGO-MIDWAY CLOUDY    25  19  78 W12       30.28R WCI  14
AURORA         CLOUDY    22  17  81 NW12      30.30R HAZE    WCI  10
LANSING*       CLOUDY    25  20  80 W6        30.27S WCI  18
JOLIET*        CLOUDY    23  19  85 W7        30.31R FOG     WCI  15
WAUKEGAN       CLOUDY    22  18  85 NW9       30.26R WCI  12
DUPAGE AIRPORT CLOUDY    23  18  81 NW10      30.28R WCI  12
KANKAKEE*      CLOUDY   N/A N/A N/A W10       30.31R HAZE
WHEELING       CLOUDY    24  19  81 NW12      30.29R WCI  13
MORRIS*        CLOUDY    24  22  92 NW9       30.30R FOG     WCI  14
ROMEOVILLE*    CLOUDY    23  20  89 NW9       30.29S FOG     WCI  13
NORTHERLY ISL    N/A     26  20  77 W8          N/A  WCI  18
$$

LMZ740>746-271400-
SOUTHERN LAKE MICHIGAN

STATION/POSITION SKY/WX   TEMP    WIND        PRES    VSBY  WAVE
                          AIR SEA DIR/SP/G                  HT/PER
                          (F)     (DEG/KT/KT) (MB)    (MI)  (FT/S)
SOUTHERN BUOY              31 42  310/ 17/ 21 1023.7R         4/ 5
WAUKEGAN HARBOR            23     310/ 10/ 15   N/A
HARRISON CRIB              25     290/ 16/ 19   N/A
BURNHAM HARBOR             26     290/ 11/ 14   N/A
CALUMET HARBOR             26     270/  5/  9 1023.6R
MICHIGAN CITY              31     300/ 22/ 24   N/A
$$

ILZ025>027-034>036-040-047-049-050-058-095>099-271400-
WEST-CENTRAL ILLINOIS

CITY           SKY/WX    TMP DP  RH WIND       PRES   REMARKS
QUINCY         CLOUDY    27  22  81 NW16      30.42R WCI  15
GALESBURG*     CLOUDY    25  23  90 W8        30.37R WCI  16
MACOMB*        CLOUDY    26  23  87 W12       30.42R WCI  16
JACKSONVILLE*  CLOUDY    30  25  82 NW8       30.41R WCI  22
PITTSFIELD*    CLOUDY    29  24  82 NW8       30.43R WCI  21
$$

ILZ028>032-037-038-041>044-048-051>054-059>061-271400-
CENTRAL ILLINOIS

CITY           SKY/WX    TMP DP  RH WIND       PRES   REMARKS
PONTIAC        CLOUDY    24  22  90 NW13      30.34R FOG     WCI  13
BLOOMINGTON    CLOUDY    24  21  88 NW16      30.34R WCI  11
DECATUR        CLOUDY    25  20  81 NW12      30.35R WCI  14
PEORIA         CLOUDY    27  20  75 NW8       30.38R WCI  19
LACON*         CLOUDY    24  20  84 NW8       30.36R WCI  16
LINCOLN*       MOCLDY    25  22  87 NW5       30.39R FOG     WCI  19
SPRINGFIELD    CLOUDY    26  22  84 W12       30.39R WCI  16
TAYLORVILLE    CLOUDY    23  19  86 N7        30.38R FOG     WCI  15
$$

ILZ033-039-045-046-055>057-062-063-271400-
EAST-CENTRAL ILLINOIS

CITY           SKY/WX    TMP DP  RH WIND       PRES   REMARKS
CHAMPAIGN      CLOUDY    24  20  84 NW13      30.32R FOG     WCI  12
DANVILLE*      CLOUDY    25  21  85 NW13      30.27S FOG     WCI  14
RANTOUL*       CLOUDY    25  21  86 NW12      30.31S FOG     WCI  14
MATTOON        PTCLDY    22  18  85 NW10      30.33R WCI  11
PARIS*         CLOUDY    26  23  91 NW12      30.33R FOG     WCI  15
$$

ILZ079-100>102-271400-
SOUTHWEST ILLINOIS

CITY           SKY/WX    TMP DP  RH WIND       PRES   REMARKS
ALTON          CLOUDY    28  25  86 NW12      30.42R FOG     WCI  18
BELLEVILLE     CLOUDY    28  25  89 NW8       30.42R WCI  19
CAHOKIA*       CLOUDY    30  24  78 NW15      30.43R WCI  19
SPARTA*        CLOUDY    27  24  86 N10       30.43R WCI  17
$$

ILZ064>066-069>071-074>076-080>082-084>086-088>090-092>094-271400-
SOUTH-CENTRAL ILLINOIS

CITY           SKY/WX    TMP DP  RH WIND       PRES   REMARKS
CARBONDALE     CLOUDY    29  24  82 N12       30.40R WCI  19
CAIRO*         CLOUDY    36  30  79 N15       30.41R WCI  26
EFFINGHAM*     CLEAR     21  15  78 NW8       30.37R WCI  11
MARION         CLOUDY    30  25  80 N21       30.40R WCI  17
MT. VERNON     CLOUDY    27  19  74 CALM      30.39R
CENTRALIA*     MOCLDY    26  22  85 NW7       30.40R FOG     WCI  18
SALEM*           N/A     26  22  85 NW7       30.40R FOG     WCI  18
METROPOLIS*    CLOUDY    33  31  92 NW10        N/A  WCI  25
$$

ILZ067-068-072-073-078-083-087-091-271400-
SOUTHEAST ILLINOIS

CITY           SKY/WX    TMP DP  RH WIND       PRES   REMARKS
LAWRENCEVILLE  CLEAR     25  21  85 W10       30.36R FOG     WCI  15
FLORA*         CLEAR     23  21  91 NW10      30.39R FOG     WCI  13
FAIRFIELD*     PTCLDY    26  22  86 NW3       30.38R
HARRISBURG*    CLOUDY    29  26  87 NW9       30.41R WCI  21
ROBINSON*      CLEAR     25  22  89 NW8       30.36R WCI  16
CARMI*         CLOUDY    29  27  90 N12       30.38R WCI  20
$$

ABBREVIATIONS USED IN REMARKS
   TC - TEMPERATURE IN CELSIUS
  WCI - WIND CHILL INDEX
   HX - HEAT INDEX
  VSB - VISIBILITY
$$




USA.gov is the U.S. government's official web portal to all federal, state and local government web resources and services.